Location: *
(51.1248°S, 108.4023°W)
Time: 03:28:23
(UTC+00:00)

Cosmos 2228 Rocket - Pass Details

Date: 15 June 2021
Orbit: 616 x 653 km, 82.5° (Epoch: 31 July)

Event Time Altitude Azimuth Distance (km) Brightness Sun altitude
Rises 12:41:07 0° 354° (N) 2,898 6.5 -23.0°
Reaches altitude 10° 12:43:19 10° 355° (N) 1,998 5.7 -22.7°
Maximum altitude 12:47:45 82° 80° (E) 642 3.1 -22.0°
Drops below altitude 10° 12:52:15 10° 168° (SSE) 2,025 5.7 -21.3°
Sets 12:54:30 0° 168° (SSE) 2,942 6.5 -21.0°
